XE1DM Weather Reports


time (UTC)temp
F
wind
direction
speed
knots
gust
knots
rain 1hr
in
rain 24hr
in
rain mn
in
humidity
%
barometer
mb
20260507001547 70 332 6.1 14.8 0.00 0.16 0.00 44 1007.3
20260507000045 70 13 5.2 19.1 0.00 0.16 0.00 46 1006.7
20260506234554 70 18 8.7 16.5 0.00 0.16 0.00 48 1006.7
20260506233050 71 59 6.1 16.5 0.00 0.16 0.00 48 1006.5
20260506231552 71 64 8.7 15.6 0.00 0.16 0.00 50 1006.0
20260506230044 72 79 9.6 17.4 0.00 0.16 0.00 50 1006.0
20260506224543 72 66 6.1 14.8 0.00 0.16 0.00 50 1005.7
20260506223043 73 41 8.7 16.5 0.00 0.16 0.00 50 1005.8
20260506221542 73 28 3.5 13.0 0.00 0.16 0.00 50 1005.8
20260506220043 74 39 5.2 13.9 0.00 0.16 0.00 49 1005.6
20260506214545 74 8 4.3 13.0 0.00 0.16 0.00 48 1005.6
20260506213042 73 61 6.1 13.0 0.00 0.16 0.00 46 1005.9
20260506211539 73 45 6.1 10.4 0.00 0.16 0.00 47 1006.1
20260506210038 72 56 4.3 13.0 0.00 0.16 0.00 52 1006.3
20260506204540 70 68 4.3 12.2 0.00 0.16 0.00 59 1006.4
20260506203040 74 103 6.1 14.8 0.00 0.16 0.00 52 1006.7
20260506201539 81 162 4.3 8.7 0.00 0.16 0.00 35 1006.5
20260506200039 81 291 0.0 8.7 0.00 0.16 0.00 33 1006.6
20260506194529 81 31 1.7 7.8 0.00 0.16 0.00 33 1006.8
20260506193026 82 97 1.7 6.1 0.00 0.16 0.00 32 1007.2
20260506191524 83 172 1.7 6.1 0.00 0.16 0.00 33 1007.5
20260506190020 80 123 1.7 5.2 0.00 0.16 0.00 35 1007.7
20260506184518 79 291 3.5 6.1 0.00 0.16 0.00 37 1007.8
20260506183016 79 313 0.9 5.2 0.00 0.16 0.00 39 1008.1
20260506181515 81 169 3.5 7.0 0.00 0.16 0.00 37 1008.3
20260506180014 79 156 1.7 6.1 0.00 0.16 0.00 38 1008.6
20260506174509 78 160 0.9 6.1 0.00 0.16 0.00 37 1008.9
20260506173016 78 220 2.6 8.7 0.00 0.16 0.00 37 1008.9
20260506171506 77 224 1.7 7.8 0.00 0.16 0.00 39 1009.0
20260506170004 77 268 2.6 6.1 0.00 0.16 0.00 39 1009.4
20260506164503 76 134 3.5 7.8 0.00 0.16 0.00 43 1009.6
20260506163107 75 231 1.7 7.0 0.00 0.16 0.00 43 1009.7
20260506161641 74 245 0.9 5.2 0.00 0.16 0.00 43 1009.7
20260506160108 73 247 2.6 6.1 0.00 0.16 0.00 45 1009.7
20260506154555 73 216 0.0 2.6 0.00 0.16 0.00 46 1009.8
20260506153057 71 206 0.9 3.5 0.00 0.16 0.00 47 1010.0
20260506151551 70 214 0.0 3.5 0.00 0.16 0.00 47 1010.1
20260506150050 71 131 0.0 3.5 0.00 0.16 0.00 48 1010.2
20260506144546 70 59 0.0 2.6 0.00 0.16 0.00 51 1010.1
20260506143045 69 18 0.9 2.6 0.00 0.16 0.00 53 1010.0
20260506141539 65 15 0.0 0.9 0.00 0.16 0.00 63 1010.1
20260506140037 63 16 0.0 1.7 0.00 0.16 0.00 63 1010.1
20260506134535 63 16 0.0 1.7 0.00 0.16 0.00 64 1009.9
20260506133033 63 16 0.0 0.9 0.00 0.16 0.00 65 1009.8
20260506131544 61 16 0.0 1.7 0.00 0.16 0.00 68 1009.7
20260506130035 60 16 0.0 0.0 0.00 0.16 0.00 69 1009.6
20260506124530 58 16 0.0 1.7 0.00 0.16 0.00 69 1009.4
20260506123029 58 16 0.0 1.7 0.00 0.16 0.00 68 1009.5
20260506121528 58 16 0.0 1.7 0.00 0.16 0.00 69 1009.6
20260506120029 57 16 1.7 2.6 0.00 0.16 0.00 69 1009.3
20260506114533 57 15 0.0 1.7 0.00 0.16 0.00 71 1009.3
20260506113025 57 15 0.0 1.7 0.00 0.16 0.00 70 1009.1
20260506111524 58 15 0.9 2.6 0.00 0.16 0.00 69 1009.0
20260506110025 58 15 1.7 2.6 0.00 0.16 0.00 71 1009.0
20260506104522 58 15 1.7 3.5 0.00 0.16 0.00 70 1009.0
20260506103022 58 15 1.7 3.5 0.00 0.16 0.00 70 1008.8
20260506101538 58 15 1.7 2.6 0.00 0.16 0.00 70 1008.9
20260506100020 58 15 0.9 2.6 0.00 0.16 0.00 70 1008.8
20260506094523 58 14 0.9 2.6 0.00 0.16 0.00 70 1008.7
20260506093021 58 14 0.0 1.7 0.00 0.16 0.00 70 1008.8
20260506091517 58 14 0.9 1.7 0.00 0.16 0.00 70 1008.6
20260506090015 58 14 0.0 0.9 0.00 0.16 0.00 71 1008.5
20260506084514 57 14 0.9 2.6 0.00 0.16 0.00 71 1008.5
20260506083012 58 14 0.9 1.7 0.00 0.16 0.00 71 1008.6
20260506081510 58 14 0.0 1.7 0.00 0.16 0.00 70 1008.7
20260506073002 60 14 0.9 2.6 0.00 0.16 0.00 67 1009.1
20260506071601 60 14 0.0 1.7 0.00 0.16 0.00 65 1009.3
20260506070103 60 14 0.9 3.5 0.00 0.16 0.00 65 1009.3
20260506061553 61 88 0.9 2.6 0.00 0.16 0.00 66 1009.7
20260506044638 63 141 2.6 7.0 0.00 0.16 0.16 63 1009.9
20260506043047 63 85 0.9 6.1 0.00 0.16 0.16 66 1009.8
20260506041558 63 133 0.9 5.2 0.00 0.16 0.16 66 1009.6
20260506040045 63 85 2.6 7.0 0.00 0.16 0.16 64 1009.1
20260506034620 63 74 2.6 13.0 0.00 0.16 0.16 61 1008.9
20260506033044 63 341 7.0 13.9 0.00 0.16 0.16 64 1008.4
20260506031544 64 312 7.0 16.5 0.00 0.16 0.16 58 1007.9
20260506030043 62 335 7.0 20.0 0.00 0.16 0.16 64 1007.8
20260506024542 64 322 8.7 15.6 0.01 0.16 0.16 63 1008.4
20260506023102 65 354 1.7 8.7 0.01 0.16 0.16 58 1008.1
20260506021541 67 37 8.7 18.2 0.02 0.16 0.16 48 1008.0
20260506020044 67 69 7.0 17.4 0.02 0.16 0.16 52 1008.2
20260506014540 64 326 5.2 9.6 0.02 0.15 0.15 62 1008.0
20260506013041 64 4 5.2 10.4 0.11 0.15 0.15 60 1007.8
20260506011540 64 36 9.6 18.2 0.14 0.14 0.14 61 1008.0
20260506010045 66 91 2.6 10.4 0.13 0.13 0.13 59 1008.3
20260506004559 64 17 7.0 10.4 0.13 0.13 0.13 68 1007.3
20260506003045 71 210 4.3 13.0 0.04 0.04 0.04 52 1007.3